EN

Hourly Weather Tlancualpican

Today, 12 April, Monday

Time Temperature Precipitation Wind Pressure Humidity
00:00 +24°C° 0 mm 0 mps 675 mmHg 37%
01:00 +24°C° 0 mm 0 mps 674 mmHg 39%
02:00 +23°C° 0 mm 0 mps 674 mmHg 41%
03:00 +23°C° 0 mm 0 mps 674 mmHg 43%
04:00 +22°C° 0 mm 0 mps 674 mmHg 45%
05:00 +22°C° 0 mm 0 mps 675 mmHg 47%
06:00 +24°C° 0 mm 0 mps 675 mmHg 42%
07:00 +27°C° 0 mm 0 mps 676 mmHg 36%
08:00 +29°C° 0 mm 0 mps 677 mmHg 30%
09:00 +33°C° 0 mm 1 mps 677 mmHg 26%
10:00 +36°C° 0 mm 1 mps 677 mmHg 21%
11:00 +39°C° 0 mm 2 mps 677 mmHg 17%
12:00 +40°C° 0 mm 2 mps 676 mmHg 16%
13:00 +40°C° 0 mm 2 mps 675 mmHg 14%
14:00 +41°C° 0 mm 2 mps 674 mmHg 13%
15:00 +40°C° 0 mm 2 mps 674 mmHg 14%
16:00 +39°C° 0 mm 3 mps 674 mmHg 14%
17:00 +39°C° 0 mm 3 mps 673 mmHg 14%
18:00 +36°C° 0 mm 2 mps 674 mmHg 20%
19:00 +34°C° 0 mm 2 mps 675 mmHg 26%
20:00 +30°C° 0 mm 1 mps 675 mmHg 32%
21:00 +29°C° 0 mm 1 mps 676 mmHg 35%
22:00 +28°C° 0 mm 1 mps 676 mmHg 38%
23:00 +28°C° 0 mm 1 mps 676 mmHg 41%

Tomorrow, 13 April, Tuesday

Time Temperature Precipitation Wind Pressure Humidity
00:00 +27°C° 0 mm 1 mps 676 mmHg 43%
01:00 +26°C° 0 mm 1 mps 675 mmHg 46%
02:00 +25°C° 0 mm 1 mps 675 mmHg 48%
03:00 +24°C° 0 mm 1 mps 675 mmHg 50%
04:00 +22°C° 0 mm 0 mps 676 mmHg 51%
05:00 +21°C° 0 mm 0 mps 676 mmHg 52%
06:00 +24°C° 0 mm 0 mps 677 mmHg 44%
07:00 +27°C° 0 mm 0 mps 678 mmHg 37%
08:00 +30°C° 0 mm 0 mps 678 mmHg 29%
09:00 +34°C° 0 mm 1 mps 678 mmHg 25%
10:00 +36°C° 0 mm 1 mps 678 mmHg 21%
11:00 +39°C° 0 mm 1 mps 678 mmHg 17%
12:00 +40°C° 0 mm 2 mps 677 mmHg 16%
13:00 +40°C° 0 mm 2 mps 676 mmHg 15%
14:00 +41°C° 0 mm 2 mps 675 mmHg 13%
15:00 +40°C° 0 mm 2 mps 675 mmHg 13%
16:00 +40°C° 0 mm 2 mps 675 mmHg 13%
17:00 +39°C° 0 mm 2 mps 674 mmHg 13%
18:00 +37°C° 0 mm 2 mps 675 mmHg 17%
19:00 +35°C° 0 mm 2 mps 676 mmHg 21%
20:00 +31°C° 0 mm 2 mps 676 mmHg 26%
21:00 +31°C° 0 mm 1 mps 677 mmHg 28%
22:00 +30°C° 0 mm 1 mps 677 mmHg 30%
23:00 +30°C° 0 mm 1 mps 678 mmHg 33%

Day after tomorrow, 14 April, Wednesday

Time Temperature Precipitation Wind Pressure Humidity
00:00 +29°C° 0 mm 1 mps 677 mmHg 35%
01:00 +28°C° 0 mm 1 mps 677 mmHg 37%
02:00 +27°C° 0 mm 1 mps 677 mmHg 39%
03:00 +26°C° 0 mm 1 mps 677 mmHg 41%
04:00 +24°C° 0 mm 0 mps 677 mmHg 43%
05:00 +23°C° 0 mm 0 mps 677 mmHg 45%
06:00 +25°C° 0 mm 0 mps 678 mmHg 39%
07:00 +28°C° 0 mm 0 mps 679 mmHg 32%
08:00 +32°C° 0 mm 1 mps 680 mmHg 26%
09:00 +34°C° 0 mm 1 mps 679 mmHg 23%
10:00 +37°C° 0 mm 2 mps 679 mmHg 20%
11:00 +39°C° 0 mm 2 mps 679 mmHg 16%
12:00 +39°C° 0 mm 2 mps 678 mmHg 15%
13:00 +40°C° 0 mm 3 mps 677 mmHg 14%
14:00 +40°C° 0 mm 3 mps 676 mmHg 13%
15:00 +40°C° 0 mm 3 mps 675 mmHg 13%
16:00 +39°C° 0 mm 3 mps 675 mmHg 14%
17:00 +39°C° 0 mm 3 mps 675 mmHg 14%
18:00 +36°C° 0 mm 2 mps 675 mmHg 16%
19:00 +34°C° 0 mm 2 mps 676 mmHg 19%
20:00 +31°C° 0 mm 1 mps 676 mmHg 22%
21:00 +30°C° 0 mm 1 mps 677 mmHg 24%
22:00 +29°C° 0 mm 1 mps 677 mmHg 26%
23:00 +29°C° 0 mm 1 mps 677 mmHg 29%

15 April, Thursday

Time Temperature Precipitation Wind Pressure Humidity
00:00 +28°C° 0 mm 1 mps 677 mmHg 32%
01:00 +27°C° 0 mm 1 mps 677 mmHg 34%
02:00 +24°C° 0 mm 0 mps 676 mmHg 37%
03:00 +23°C° 0 mm 0 mps 676 mmHg 38%
04:00 +23°C° 0 mm 0 mps 677 mmHg 39%
05:00 +22°C° 0 mm 0 mps 677 mmHg 40%
06:00 +25°C° 0 mm 0 mps 677 mmHg 35%
07:00 +27°C° 0 mm 0 mps 678 mmHg 30%
08:00 +30°C° 0 mm 0 mps 679 mmHg 25%
09:00 +34°C° 0 mm 1 mps 679 mmHg 22%
10:00 +36°C° 0 mm 1 mps 678 mmHg 19%
11:00 +38°C° 0 mm 2 mps 678 mmHg 17%
12:00 +39°C° 0 mm 2 mps 677 mmHg 16%
13:00 +40°C° 0 mm 2 mps 676 mmHg 14%
14:00 +40°C° 0 mm 2 mps 675 mmHg 13%
15:00 +40°C° 0 mm 2 mps 675 mmHg 13%
16:00 +39°C° 0 mm 3 mps 674 mmHg 13%
17:00 +39°C° 0 mm 3 mps 674 mmHg 13%
18:00 +36°C° 0 mm 2 mps 674 mmHg 16%
19:00 +34°C° 0 mm 2 mps 675 mmHg 19%
20:00 +30°C° 0 mm 1 mps 675 mmHg 21%
21:00 +29°C° 0 mm 1 mps 675 mmHg 24%
22:00 +28°C° 0 mm 1 mps 676 mmHg 27%
23:00 +27°C° 0 mm 1 mps 676 mmHg 30%

16 April, Friday

Time Temperature Precipitation Wind Pressure Humidity
00:00 +26°C° 0 mm 1 mps 675 mmHg 32%
01:00 +25°C° 0 mm 1 mps 675 mmHg 35%
02:00 +23°C° 0 mm 0 mps 675 mmHg 37%
03:00 +22°C° 0 mm 0 mps 675 mmHg 38%
04:00 +21°C° 0 mm 0 mps 675 mmHg 39%
05:00 +21°C° 0 mm 0 mps 675 mmHg 41%
06:00 +24°C° 0 mm 0 mps 676 mmHg 35%
07:00 +26°C° 0 mm 0 mps 677 mmHg 30%
08:00 +29°C° 0 mm 0 mps 678 mmHg 24%
09:00 +33°C° 0 mm 1 mps 678 mmHg 21%
10:00 +36°C° 0 mm 1 mps 677 mmHg 18%
11:00 +39°C° 0 mm 2 mps 677 mmHg 14%
12:00 +40°C° 0 mm 2 mps 676 mmHg 13%
13:00 +40°C° 0 mm 2 mps 675 mmHg 12%
14:00 +41°C° 0 mm 2 mps 675 mmHg 11%
15:00 +41°C° 0 mm 2 mps 674 mmHg 11%
16:00 +40°C° 0 mm 3 mps 674 mmHg 11%
17:00 +39°C° 0 mm 3 mps 674 mmHg 12%
18:00 +37°C° 0 mm 2 mps 674 mmHg 15%
19:00 +34°C° 0 mm 2 mps 674 mmHg 19%
20:00 +30°C° 0 mm 2 mps 674 mmHg 22%
21:00 +29°C° 0 mm 1 mps 675 mmHg 26%
22:00 +28°C° 0 mm 1 mps 675 mmHg 30%
23:00 +27°C° 0 mm 1 mps 675 mmHg 34%

17 April, Saturday

Time Temperature Precipitation Wind Pressure Humidity
00:00 +26°C° 0 mm 1 mps 675 mmHg 37%
01:00 +25°C° 0 mm 1 mps 675 mmHg 39%
02:00 +25°C° 0 mm 1 mps 675 mmHg 42%
03:00 +22°C° 0 mm 0 mps 675 mmHg 43%
04:00 +22°C° 0 mm 0 mps 675 mmHg 45%
05:00 +21°C° 0 mm 0 mps 675 mmHg 47%
06:00 +24°C° 0 mm 0 mps 676 mmHg 41%
07:00 +27°C° 0 mm 0 mps 677 mmHg 35%
08:00 +31°C° 0 mm 1 mps 678 mmHg 29%
09:00 +34°C° 0 mm 1 mps 678 mmHg 25%
10:00 +36°C° 0 mm 1 mps 677 mmHg 20%
11:00 +39°C° 0 mm 2 mps 677 mmHg 16%
12:00 +40°C° 0 mm 2 mps 676 mmHg 15%
13:00 +41°C° 0 mm 2 mps 675 mmHg 13%
14:00 +42°C° 0 mm 3 mps 674 mmHg 12%
15:00 +42°C° 0 mm 3 mps 674 mmHg 12%
16:00 +40°C° 0 mm 3 mps 674 mmHg 12%
17:00 +39°C° 0 mm 3 mps 673 mmHg 12%
18:00 +37°C° 0 mm 2 mps 674 mmHg 17%
19:00 +34°C° 0 mm 2 mps 674 mmHg 22%
20:00 +31°C° 0 mm 2 mps 675 mmHg 27%
21:00 +30°C° 0 mm 2 mps 675 mmHg 31%
22:00 +29°C° 0 mm 1 mps 676 mmHg 35%
23:00 +28°C° 0 mm 1 mps 676 mmHg 40%
Show more

We Need Your Consent

Meteoprog and our Service Providers may store and access personal data such as cookies, device identifiers or other similar technologies on your device and process such data to personalise content and ads, as well as provide social media features and to analyse the traffic.

  • Store and/or access information on your device

    Cookies, device identifiers or other information can be stored or accessed on your device for the purposes indicated above.

  • Personalised ads and content, ad and content measurement, audience insights, and products development

    Ads and content can be personalised based on a profile. More data can be added to better personalise ads and content. Ad and content performance can be measured. Insights about the audience who saw the ads and content can be derived. Such data can be used to develop or improve user’s experience, systems and software.

By clicking ‘I Agree’ you will allow the use of indicated cookies, device identifiers, web beacons or other similar technologies. Your settings can be changed in the browser on your device.

For certain purposes, legitimate interests may be relied on, rather than consent. You can read more about this in our Privacy and Cookie Policy.